Volver al catálogo

JAWSAT

ActivoCienciaLEO
NORAD 26061·PAYLOAD·🇺🇸 United States

Lanzado Jan 27, 2000 desde Vandenberg Space Force Base

Loading…

Próximos Pases (próximas 24 horas)

TLE

ActualizadoSource: Space-Track

Época: Sep 14, 2026, 01:23 UTC

1 26061U 00004A   26257.05763912  .00000311  00000-0  10578-3 0  9993
2 26061 100.2235 280.1830 0031364 337.2923  22.6873 14.45182477399763

Sigue JAWSAT en tiempo real con AllMySat

Download on the App Store